Theta_e
314 313 314 311 308 306 305 305 305 305 306 307 308 307 308 310 312 316 315 313 316 313 316 318 318 316 315 317 317 318 319 321 320 321 322 323 322 322 321 320 320 321 322 323 321
314 314 312 308 306 305 305 307 308 308 308 309 308 308 310 313 319 314 310 310 312 315 318 317 317 317 318 316 316 316 317 318 319 321 321 322 320 320 319 319 319 320 320 320 320
313 313 310 306 305 305 307 308 309 310 310 310 310 308 311 314 319 317 310 311 312 314 317 316 316 317 317 317 318 317 317 318 318 317 318 318 318 318 318 318 319 319 320 320 320
313 311 308 306 305 306 307 308 309 310 312 312 311 307 310 319 321 315 312 312 315 317 317 316 318 317 318 318 318 317 317 317 317 317 317 318 318 317 318 318 318 319 319 319 319
313 309 307 306 308 308 309 309 309 310 312 313 309 309 317 318 315 313 313 315 316 315 315 317 317 317 318 317 317 316 317 317 317 316 316 316 316 316 316 317 317 317 318 318 318
312 307 307 308 309 309 310 310 310 310 312 313 310 311 323 315 314 315 315 315 315 315 316 316 316 315 316 316 316 317 316 316 316 316 317 316 317 317 317 317 316 316 316 317 318
310 306 307 308 309 310 311 310 310 311 312 313 313 318 317 315 315 316 316 315 314 315 316 316 315 316 317 317 318 317 316 317 318 317 317 317 318 317 318 318 317 317 316 317 318
309 306 306 309 310 309 309 310 311 311 311 313 313 322 316 315 316 316 316 316 316 315 315 315 315 316 317 317 317 317 319 319 319 317 318 318 319 318 318 318 319 318 318 319 318
310 307 306 307 309 309 309 311 312 311 311 313 321 323 317 314 316 314 315 315 315 315 316 315 315 317 317 317 319 318 318 319 319 319 318 318 319 319 319 320 321 321 321 321 320
311 308 307 309 309 309 309 312 311 315 314 317 315 319 315 315 314 314 315 315 315 316 317 317 318 318 318 318 319 319 318 318 318 318 318 318 318 318 319 319 320 320 321 321 321
312 308 310 310 310 311 315 316 319 321 317 317 317 316 315 315 314 315 314 315 316 317 318 318 318 319 318 317 317 317 317 317 317 317 317 318 318 319 319 320 320 321 321 321 321
312 309 310 309 309 312 315 319 317 317 321 316 316 316 314 314 315 315 314 315 315 317 317 317 318 318 317 316 316 315 316 316 316 317 318 319 319 319 320 321 321 321 321 321 322
312 310 309 309 311 315 316 315 316 316 322 318 316 316 315 314 315 315 315 314 314 314 315 315 315 314 314 315 316 316 317 317 317 318 318 318 320 321 321 321 321 321 321 321 322
311 310 309 310 311 315 317 315 315 316 326 321 318 316 315 315 317 314 314 314 315 315 314 314 314 314 315 315 315 316 316 316 316 318 320 319 321 320 320 321 321 321 322 322 322
309 311 311 309 316 318 315 316 316 318 334 317 316 314 315 315 315 316 314 315 315 315 314 316 317 316 315 315 315 316 317 317 318 319 320 319 320 320 320 322 322 321 320 320 322
308 312 312 318 317 316 315 316 318 328 329 317 315 315 316 317 316 315 315 315 315 315 316 317 316 316 316 317 317 317 317 318 319 319 321 320 320 321 321 323 321 321 321 321 319
309 311 311 315 317 314 315 319 328 326 317 317 316 316 317 316 316 316 315 316 316 317 318 317 317 316 315 317 316 319 320 323 324 323 324 324 324 321 322 323 320 320 321 321 321
311 311 315 315 315 315 317 322 326 319 318 317 317 317 317 316 316 315 316 317 315 316 318 319 320 317 316 315 316 317 317 320 325 323 323 321 323 322 321 319 319 320 320 321 321
314 316 317 317 314 314 319 322 322 318 316 317 317 317 317 316 317 316 316 316 315 315 318 319 318 316 315 316 316 318 320 319 325 326 325 323 322 321 320 319 320 320 321 321 322
316 319 319 316 314 316 320 315 318 316 315 316 317 317 318 318 317 316 316 315 314 314 316 317 320 316 316 316 317 319 318 323 325 330 327 322 323 324 321 320 320 321 320 321 321
318 322 318 314 313 321 320 318 316 315 314 316 317 317 318 318 317 317 317 316 315 314 315 315 318 318 317 317 318 320 320 319 319 322 326 325 321 322 322 321 319 319 320 321 321
318 321 317 315 321 318 318 317 310 315 316 316 316 316 317 317 318 318 318 316 315 314 315 315 317 319 317 316 316 317 319 319 328 326 324 328 329 320 321 320 319 320 319 319 319
318 317 316 315 321 317 319 317 316 316 316 316 316 316 316 317 322 317 316 315 313 313 314 314 317 322 317 320 321 320 319 321 322 324 328 330 324 319 320 321 320 321 321 320 320
318 318 316 316 317 319 319 317 317 316 315 315 316 316 317 318 318 319 318 316 315 314 314 313 319 317 320 317 319 320 318 317 323 327 325 324 323 320 320 319 319 320 319 319 319
316 318 317 314 316 317 317 318 317 317 316 316 318 318 318 319 318 319 317 316 316 317 315 315 321 318 319 317 318 318 317 318 318 319 323 321 320 319 318 317 318 318 319 318 316
314 314 314 313 316 317 315 318 318 316 317 318 318 317 318 319 318 318 318 317 317 317 315 318 318 317 318 316 316 318 319 319 318 318 318 319 320 317 317 318 318 317 317 317 315
311 312 315 315 315 317 317 317 315 315 315 316 315 315 316 316 315 315 314 314 314 317 320 319 319 317 320 316 316 320 318 318 317 315 316 320 318 315 316 317 316 315 314 314 313
Wind_Speed
19 17 15 12 10 9 8 8 8 7 7 6 7 6 3 9 8 2 14 5 4 4 4 6 3 4 7 4 10 9 10 14 18 17 15 5 7 9 5 11 13 16 11 14 13
20 17 14 10 9 8 9 8 8 7 7 7 6 4 5 6 3 15 5 5 6 6 11 7 1 5 5 6 5 10 12 17 10 14 11 15 10 11 14 13 16 15 13 15 8
21 17 12 9 8 8 8 8 7 8 8 7 5 1 5 2 6 13 5 5 5 4 8 6 8 10 9 6 2 10 13 13 10 8 8 16 17 15 17 18 15 16 14 10 11
24 17 11 8 7 7 7 7 7 7 8 6 3 5 7 6 2 7 4 5 3 4 7 7 6 10 7 7 1 12 16 10 13 5 11 16 18 20 19 19 18 15 13 14 15
25 17 8 6 7 6 7 7 7 6 7 5 3 4 4 6 11 4 1 3 5 4 6 5 8 8 9 5 7 15 15 7 11 14 15 18 20 21 23 20 19 19 17 17 16
26 17 7 5 5 6 7 8 6 4 5 4 2 3 9 10 3 3 1 3 4 7 5 8 6 7 10 9 10 14 12 15 16 18 16 16 18 18 22 18 18 19 20 18 17
24 16 7 4 5 6 8 7 4 2 3 4 2 5 14 8 2 1 1 3 3 5 8 5 9 10 12 14 4 11 18 19 18 14 12 13 21 21 23 21 17 20 14 17 18
24 14 8 4 5 7 8 4 2 2 1 1 3 7 6 3 1 3 2 5 3 4 5 7 9 13 14 11 16 19 19 17 18 9 13 12 21 19 16 8 16 16 16 16 18
26 14 8 6 6 9 6 3 4 2 1 1 5 9 8 6 6 3 4 8 9 9 8 8 14 13 13 15 16 17 16 17 15 15 11 17 23 21 18 12 16 17 18 18 17
29 14 7 4 5 10 3 2 1 2 2 6 8 8 5 3 3 6 3 7 9 10 12 16 12 12 14 14 14 20 21 21 21 21 21 20 24 23 22 21 21 21 20 19 18
29 12 6 4 5 9 2 4 6 7 13 6 5 3 2 2 5 3 5 7 12 11 14 10 10 13 19 19 20 21 21 23 22 22 23 22 23 24 22 22 22 21 22 21 20
29 10 3 3 4 6 8 4 7 6 5 4 1 4 3 5 9 2 7 8 9 12 13 14 16 15 14 16 19 21 23 25 26 25 17 21 26 27 26 24 22 21 21 21 20
28 9 4 2 3 4 6 7 6 4 7 8 3 5 2 7 6 3 6 10 12 11 12 14 19 17 16 18 19 21 22 24 23 22 22 21 29 26 16 6 8 13 16 17 18
26 8 4 3 6 4 2 9 6 2 6 11 6 4 6 8 6 2 4 9 11 12 14 11 7 13 17 18 18 22 20 22 22 19 19 20 18 21 21 17 9 10 11 14 14
25 7 4 4 10 5 8 9 1 4 4 5 5 4 6 6 7 9 3 6 12 16 9 15 18 18 18 16 13 19 17 17 20 21 21 22 14 17 14 13 12 4 4 9 11
24 5 3 3 5 5 7 2 5 6 2 5 1 4 9 8 5 6 11 8 14 10 13 17 14 10 10 13 15 10 16 21 21 20 18 23 20 17 9 4 2 9 4 6 6
23 3 1 3 8 11 4 7 6 6 3 3 4 10 12 8 10 8 10 12 9 9 12 17 10 6 6 12 13 10 16 10 9 11 15 11 5 11 3 8 8 9 8 6 7
11 7 3 3 8 7 7 8 7 6 8 8 10 16 10 8 7 9 14 13 5 8 14 9 14 6 8 15 17 20 15 10 14 12 19 13 9 2 2 1 3 5 8 10 4
3 4 8 4 8 5 7 7 6 8 4 9 13 10 7 3 9 13 11 12 4 7 7 13 7 22 21 10 7 6 8 8 10 20 17 16 20 18 6 7 7 0 5 3 3
9 5 4 9 3 7 7 3 4 2 6 8 10 5 10 13 12 11 11 2 4 3 6 10 21 12 11 5 15 14 14 7 5 5 13 13 6 4 2 2 4 4 0 1 3
6 4 5 9 5 7 5 4 5 3 6 6 9 13 14 13 12 14 8 10 4 6 7 16 14 15 19 19 17 8 12 13 11 10 8 13 7 2 3 13 9 6 1 7 7
7 4 5 6 7 1 4 4 2 7 6 9 7 12 10 11 13 11 13 7 2 7 12 10 7 16 23 25 21 19 19 16 7 15 13 12 15 20 16 9 6 9 6 10 10
7 4 2 7 4 6 1 8 5 7 6 5 8 7 7 13 7 8 11 6 7 11 7 8 5 11 11 2 4 7 9 12 16 13 14 17 16 4 4 13 10 18 19 19 15
5 4 1 1 2 7 9 9 7 4 10 10 11 12 11 11 12 11 15 13 10 8 10 9 7 16 15 21 23 23 24 21 16 6 15 19 29 24 26 24 19 18 13 19 13
3 4 3 6 6 9 9 12 12 10 5 6 7 11 10 14 18 21 18 16 20 18 15 8 7 16 21 25 26 28 28 25 23 24 21 24 28 25 19 19 20 16 12 15 15
6 5 5 13 8 9 6 9 9 11 8 12 14 17 17 16 18 26 24 20 19 17 15 4 6 15 23 25 27 26 27 26 27 25 23 22 22 18 6 11 11 15 18 18 18
11 7 5 9 8 7 7 10 10 12 10 10 10 15 18 21 21 21 21 23 23 22 16 5 4 6 19 20 22 20 20 14 15 15 15 17 21 18 18 18 18 18 18 19 19
Wind_Direction
360 358 358 4 18 29 41 49 47 42 35 17 2 359 29 129 130 125 51 45 12 346 301 278 241 274 232 245 249 252 259 256 260 251 240 178 191 271 209 285 283 272 281 296 321
1 358 359 13 32 41 57 53 46 36 20 8 2 4 146 173 184 78 73 44 17 352 310 322 329 270 234 256 252 256 256 265 8 343 327 303 329 287 290 264 265 254 257 258 257
1 358 0 24 50 60 60 45 39 27 18 8 8 116 178 290 146 78 42 17 348 316 296 305 279 279 273 264 246 274 266 319 324 301 307 291 287 282 270 268 260 270 278 285 297
2 359 4 33 59 66 55 37 25 17 15 10 55 147 195 273 60 71 40 39 46 285 275 293 266 259 288 277 169 280 268 290 284 277 265 273 284 280 275 272 285 289 282 272 276
2 3 19 48 59 56 39 22 12 13 19 35 128 176 274 102 79 105 92 336 303 19 2 340 341 321 282 319 280 258 276 272 268 271 265 274 274 279 272 273 274 273 256 254 260
4 12 33 56 51 33 17 5 2 15 28 52 123 273 252 82 93 93 27 298 358 347 2 353 352 349 285 288 281 314 297 281 278 269 263 267 273 275 273 264 261 261 260 259 259
9 12 27 40 36 9 358 357 12 58 42 50 3 330 59 79 101 44 257 351 330 330 325 355 322 300 327 284 306 280 281 275 260 253 273 274 276 263 262 255 265 264 257 257 256
10 13 13 15 13 1 358 20 77 104 38 29 324 295 82 99 266 250 320 259 244 269 291 299 303 293 271 294 283 262 257 271 280 199 234 267 274 279 291 233 257 257 254 256 256
10 12 3 355 3 3 19 66 97 105 112 210 285 249 112 179 206 13 313 309 316 271 254 290 275 282 298 270 272 258 253 270 289 298 287 253 276 282 281 261 264 260 266 267 256
8 10 7 7 10 8 52 133 133 138 219 243 262 258 156 9 10 302 302 292 282 298 277 230 252 268 256 256 277 310 306 300 295 296 292 285 280 281 273 263 262 264 267 259 256
5 8 29 34 5 10 353 230 210 197 209 329 38 15 99 346 231 245 341 295 247 267 266 294 293 285 298 295 294 291 283 284 285 284 277 276 277 277 277 272 264 260 261 257 251
4 5 25 39 9 341 316 2 24 337 267 207 191 259 274 305 284 109 312 298 311 287 303 273 261 277 311 303 289 286 284 278 275 278 292 296 292 286 278 265 259 259 259 255 253
2 2 359 265 319 289 41 21 330 314 258 162 210 281 314 293 325 335 321 321 299 296 301 299 292 305 305 301 292 280 278 281 291 301 298 281 267 262 253 220 255 249 257 257 258
358 357 355 268 269 359 105 345 308 269 264 144 217 161 231 308 218 262 299 319 295 313 319 288 282 303 304 294 293 284 291 300 300 298 281 298 297 291 279 275 252 259 257 255 251
354 339 349 335 324 357 342 334 294 218 264 111 132 57 263 266 323 145 257 282 304 307 289 284 315 310 300 301 307 294 295 294 289 275 281 274 266 273 255 228 199 146 276 292 273
348 319 313 249 244 359 326 327 224 232 203 153 173 272 286 301 290 289 287 296 283 289 267 268 294 299 310 306 273 280 281 269 264 261 259 264 251 258 263 95 159 192 252 288 273
345 233 265 309 337 332 307 234 243 256 160 97 331 320 313 310 310 300 314 304 302 314 310 312 302 320 286 290 296 246 286 313 289 259 232 358 310 265 330 239 328 320 314 282 297
347 178 281 263 322 323 268 252 265 59 14 6 315 304 286 359 310 285 302 287 293 259 300 310 311 346 345 295 295 288 279 267 290 307 315 309 267 124 323 251 286 311 292 272 241
18 228 243 320 311 288 269 253 357 11 359 326 306 281 288 241 303 305 290 300 320 309 301 313 287 321 294 315 284 293 261 283 263 264 268 273 265 255 204 182 163 290 335 23 346
336 251 107 332 291 259 257 313 323 343 309 298 294 291 307 317 311 323 315 35 286 271 297 299 301 301 288 271 268 264 277 281 255 270 282 282 262 249 43 42 198 110 193 167 254
297 258 70 334 264 238 275 359 311 0 307 286 295 295 296 306 305 302 282 296 340 303 292 292 282 284 297 276 276 230 251 254 284 256 274 289 286 244 59 328 297 305 32 308 278
293 273 30 332 245 209 315 7 35 267 257 265 273 273 290 316 299 294 290 269 90 296 296 315 298 290 286 283 270 264 258 254 251 267 264 277 273 293 288 241 282 225 301 323 305
308 302 63 296 308 327 33 276 253 274 265 283 283 269 293 293 299 280 283 302 263 276 296 341 287 304 299 173 48 287 289 276 283 288 264 272 271 224 342 302 306 319 332 311 302
294 304 135 95 96 326 330 289 269 183 274 273 277 291 281 278 288 276 272 291 283 243 268 270 236 248 268 283 306 299 290 285 270 258 278 269 286 291 292 304 310 285 247 280 289
337 32 36 316 331 325 290 295 291 298 207 268 280 274 283 305 302 293 291 295 289 279 265 248 250 248 262 280 281 278 278 279 272 268 262 275 276 288 286 308 323 319 288 267 279
331 347 342 291 286 289 264 279 290 298 296 296 290 300 289 289 298 295 293 295 299 289 264 192 269 294 282 282 273 272 272 264 267 278 287 294 287 286 32 294 298 298 288 294 294
359 307 274 290 269 275 308 324 308 314 294 290 296 302 287 297 309 304 296 286 276 274 268 245 244 273 275 290 301 285 284 275 302 310 321 297 299 308 303 299 304 303 298 289 281